Powrót do katalogu

COSMOS 1013

AktywnyMilitariaLEO
NORAD 10930·PAYLOAD·🇷🇺 Russia

Wystrzelony Jun 7, 1978 z Plesetsk Cosmodrome

Loading…

Następne Przeloty (najbliższe 24 godziny)

TLE

ŚwieżeSource: Space-Track

Epoka: Sep 14, 2026, 14:55 UTC

1 10930U 78056A   26257.62201648 -.00000012  00000-0  27523-4 0  9997
2 10930  74.0306  13.9780 0048606 272.6702  98.3023 12.37819757181233

Śledź COSMOS 1013 w czasie rzeczywistym z AllMySat

Download on the App Store